Theta_e
310 309 308 307 305 306 305 303 301 300 298 298 299 297 298 295 295 296 295 297 296 297 297 297 298 298 298 297 297 298 298 297 298 298 296 297 296 296 298 296 295 297
305 304 303 304 303 302 300 299 300 299 297 296 296 295 295 295 294 294 294 294 295 295 294 295 295 296 296 295 294 295 295 295 295 295 295 294 293 294 294 294 293 294
305 306 305 303 300 298 297 296 297 296 296 294 294 294 294 291 293 292 292 292 292 292 293 293 293 293 293 293 293 292 292 291 292 291 291 290 291 292 291 290 291 292
302 302 301 298 297 296 295 295 294 294 294 294 293 292 292 292 291 290 290 289 290 290 289 291 290 291 291 291 290 289 288 288 287 287 287 286 287 286 289 289 288 288
298 296 296 295 294 294 294 294 293 293 292 291 291 290 290 290 289 287 286 286 287 286 287 287 288 288 287 287 286 287 285 285 286 285 284 285 285 286 287 286 285 286
294 294 294 294 293 293 293 292 291 291 291 290 290 288 287 286 286 286 286 286 285 285 285 284 285 284 284 284 284 284 284 284 284 284 285 284 285 284 286 285 285 286
292 292 292 292 292 292 291 290 289 289 289 288 285 286 285 286 286 285 285 285 284 284 284 284 285 284 283 283 283 284 283 284 284 284 285 284 283 285 284 283 284 285
291 291 291 291 290 289 288 287 286 286 285 285 286 283 285 285 286 284 283 283 284 284 284 284 284 284 283 283 284 284 284 284 283 284 284 284 283 284 284 283 283 284
289 288 288 287 287 287 286 286 285 284 284 286 285 284 283 284 283 283 282 282 284 283 284 284 284 284 282 283 283 284 284 284 283 284 284 284 284 284 284 283 284 283
287 287 287 286 286 286 285 284 285 284 283 285 284 283 284 282 282 282 282 283 284 284 284 284 284 283 283 282 283 283 284 284 284 283 283 283 283 284 284 283 283 283
286 286 286 286 285 285 285 284 284 284 283 283 283 284 282 283 283 283 284 284 284 283 283 283 283 283 283 283 283 282 282 283 284 284 283 284 283 283 284 283 283 283
286 286 286 286 285 285 284 284 284 284 283 282 282 284 283 283 283 283 282 282 282 282 282 281 281 281 282 283 283 283 282 281 282 282 283 283 283 284 283 283 283 283
286 286 286 285 285 284 284 284 283 283 283 283 282 283 283 283 282 282 281 282 282 282 282 282 282 282 281 281 282 282 282 283 282 282 283 282 283 283 283 283 283 283
285 285 285 284 284 283 283 283 283 282 282 282 282 283 283 281 281 282 281 280 280 280 281 280 280 280 280 280 280 281 281 281 281 282 282 282 282 282 282 282 283 283
285 284 284 283 283 283 283 283 282 281 281 281 281 281 282 280 281 281 281 281 281 281 281 280 281 282 281 281 282 283 281 282 282 282 282 282 282 282 282 282 282 282
284 284 283 283 283 283 282 282 281 281 281 281 280 280 280 279 279 279 280 280 280 280 279 281 281 281 283 288 289 285 283 283 283 282 282 281 281 281 281 281 281 281
284 283 283 283 282 282 281 281 281 281 280 280 279 279 279 278 279 280 280 279 279 279 280 281 281 282 286 288 289 289 286 282 282 282 281 281 280 280 280 280 281 281
283 283 282 282 282 281 280 280 279 279 279 278 278 278 278 278 279 279 279 279 279 279 279 280 280 284 287 287 288 288 288 285 282 282 281 280 280 280 280 280 280 280
283 282 282 281 281 280 280 279 278 277 276 276 276 277 278 279 278 278 278 278 279 279 279 279 279 283 285 287 287 287 288 287 282 281 280 279 279 279 279 279 279 280
282 282 281 280 280 279 279 278 277 276 275 275 276 277 277 277 277 277 277 278 278 278 278 278 278 282 285 286 286 287 287 286 280 280 279 279 279 279 279 279 279 279
282 281 280 279 279 278 277 277 276 275 275 275 276 276 277 276 276 275 276 275 276 276 277 277 278 283 284 285 286 286 287 285 280 280 279 278 279 278 278 278 279 279
281 280 279 278 278 277 276 276 275 274 274 275 275 275 274 274 274 274 274 274 275 274 276 276 277 282 283 284 285 285 285 281 279 279 278 278 278 278 278 278 278 279
280 279 278 277 277 276 275 274 274 274 274 274 273 274 273 273 273 274 274 274 274 274 274 275 275 279 282 283 284 285 283 278 278 277 277 277 277 278 278 278 278 279
279 278 277 276 275 274 274 274 272 272 272 273 273 272 272 272 273 273 273 273 273 274 274 274 274 277 281 282 283 283 283 278 277 277 276 276 277 278 278 278 279 280
277 276 275 274 274 273 273 272 271 271 271 270 271 270 271 272 272 272 272 272 272 273 276 275 272 275 280 281 282 282 281 277 276 275 275 276 276 277 278 278 278 279
275 274 274 273 273 272 271 271 271 270 270 271 269 270 270 271 270 271 272 274 274 273 272 271 271 272 275 281 281 282 282 279 275 274 275 275 277 277 277 277 278 278
Wind_Speed
7 6 7 7 6 6 7 7 6 7 5 5 6 4 5 3 3 4 4 5 5 5 4 4 4 4 4 4 4 5 5 4 5 4 4 4 4 4 5 4 4 3
7 7 7 8 7 7 6 6 7 7 6 5 5 5 4 4 4 4 4 5 5 5 4 4 4 4 4 4 4 5 5 5 5 3 5 5 4 4 4 4 4 4
7 8 8 8 8 7 7 6 7 6 6 5 4 5 4 3 5 4 5 4 5 4 4 4 4 5 4 4 4 4 4 4 5 4 4 4 3 4 3 3 4 3
7 8 8 8 8 8 6 8 6 6 5 6 5 4 5 4 5 5 4 4 4 4 4 4 4 4 5 4 4 5 4 4 3 3 4 3 4 3 4 4 3 3
8 7 7 7 6 6 6 8 7 6 6 5 4 4 6 5 5 5 4 4 5 5 5 5 5 5 4 5 4 5 4 4 4 4 4 4 3 3 4 3 4 5
6 7 7 7 6 7 7 7 6 6 6 5 5 4 4 4 5 5 5 5 5 5 5 4 4 4 4 4 4 4 4 4 4 4 4 4 5 3 2 4 5 6
8 8 8 7 7 7 8 6 5 5 5 5 4 4 4 5 6 5 5 5 4 4 4 4 4 4 4 4 4 4 4 4 4 4 4 4 4 6 4 4 4 5
8 6 7 7 8 6 7 6 5 5 5 4 6 4 4 5 5 4 4 4 4 4 4 4 4 4 4 4 5 5 5 3 3 4 4 4 4 5 5 4 4 5
8 7 7 7 8 6 7 6 5 4 4 6 6 5 4 5 4 4 4 4 4 4 4 4 4 4 4 4 4 3 4 4 3 3 4 4 5 5 5 4 5 5
8 7 8 7 8 6 7 5 5 5 4 6 5 4 5 3 3 3 4 4 5 5 5 4 4 4 4 4 3 4 4 4 4 4 4 4 4 5 6 5 6 7
8 7 8 8 8 6 7 6 5 5 4 5 5 5 4 4 4 4 5 5 5 4 4 4 4 4 4 4 4 3 3 4 4 4 4 5 5 5 6 5 6 6
8 7 8 8 8 7 7 6 6 5 5 4 4 5 4 5 5 5 4 4 4 3 3 3 4 4 4 4 4 4 3 3 4 4 5 5 6 6 5 5 6 7
8 8 8 8 7 7 6 6 6 5 5 5 4 5 5 5 4 4 3 3 3 3 4 4 4 4 4 4 4 4 4 4 4 4 4 4 5 6 6 6 6 7
7 7 7 7 6 6 6 5 5 5 4 4 5 6 5 4 4 3 3 2 3 3 3 3 3 3 3 3 4 4 4 4 4 4 5 6 5 6 6 6 7 7
7 6 6 6 6 6 6 5 5 4 4 5 5 4 4 3 3 3 3 4 4 4 4 3 3 4 3 3 4 5 4 4 4 5 6 7 7 7 7 7 7 6
7 6 6 6 6 6 5 5 5 5 5 5 4 3 3 3 3 3 3 4 4 4 4 3 3 3 5 10 8 5 5 5 5 5 6 6 7 8 7 6 7 6
7 7 6 7 5 5 5 5 5 5 5 4 4 4 3 3 3 4 4 4 4 4 4 4 4 4 10 11 11 12 6 5 5 6 5 5 6 6 8 9 8 6
7 7 7 6 5 5 5 4 5 5 5 4 3 4 3 3 6 4 4 4 4 4 4 5 5 7 12 12 12 13 10 6 4 5 5 5 5 6 7 7 9 9
7 8 7 6 5 5 4 5 5 4 4 3 3 1 3 6 4 5 4 4 4 5 4 5 4 8 12 13 13 13 13 9 5 4 6 6 6 6 7 7 8 9
7 7 7 6 5 5 5 5 4 4 3 2 2 3 5 5 4 5 4 4 4 4 4 4 5 8 12 13 13 13 13 10 4 5 5 5 6 7 6 7 7 9
8 7 7 6 6 5 5 4 4 3 3 2 3 4 4 4 3 3 3 3 4 4 4 4 5 10 12 12 13 13 14 9 5 5 5 5 5 5 6 6 7 8
8 8 7 6 6 5 5 4 4 3 3 2 3 3 3 3 3 2 2 3 3 4 4 4 5 10 11 12 13 13 13 6 5 6 6 7 6 4 5 5 6 7
7 8 7 6 6 6 5 4 4 3 3 1 4 3 3 3 2 1 2 2 3 3 4 4 4 8 11 13 13 15 10 5 6 6 7 8 8 6 6 5 5 6
7 7 8 7 6 6 5 4 2 1 2 1 3 3 3 2 2 2 2 2 2 4 4 4 4 7 11 13 14 15 11 7 6 7 8 7 9 8 6 6 7 11
7 6 6 7 7 5 5 5 4 3 1 2 3 3 1 1 2 2 2 3 2 3 6 4 4 6 10 13 14 15 11 5 6 7 8 9 9 11 11 8 7 8
6 7 6 7 7 5 4 4 3 3 3 3 3 3 2 2 1 1 2 3 3 2 3 3 2 4 5 13 13 14 15 8 5 7 10 11 10 10 13 13 11 8
Wind_Direction
118 116 117 109 105 110 117 109 104 101 99 99 99 95 88 78 53 63 62 56 51 52 41 42 38 42 38 41 43 58 52 55 49 28 40 42 31 29 26 16 14 14
108 110 106 97 88 84 85 105 110 109 104 101 108 109 87 84 58 72 66 65 57 52 49 48 47 47 42 43 41 52 47 47 45 14 42 38 15 24 13 360 350 336
110 100 100 107 113 107 107 101 103 107 110 110 100 90 94 86 82 65 67 70 70 57 51 48 50 42 44 45 47 54 50 46 37 7 40 25 13 17 340 338 333 325
91 103 109 112 116 118 116 106 100 103 104 95 94 97 96 87 84 79 73 70 77 65 57 55 52 43 43 39 46 46 38 48 36 31 40 10 6 5 332 332 316 314
113 109 109 110 109 112 110 109 112 110 105 116 103 91 92 93 89 85 81 70 72 65 55 52 46 44 38 41 47 52 29 31 14 34 35 19 356 358 324 344 327 317
99 107 110 113 119 117 112 112 120 118 117 103 110 101 104 107 99 91 82 77 65 69 62 54 55 43 48 51 50 54 42 33 7 31 31 11 334 332 332 338 335 324
116 113 110 110 106 106 108 113 113 110 108 124 114 98 117 93 85 84 82 87 83 73 74 62 57 45 35 54 56 36 18 18 14 22 15 341 348 329 338 341 325 309
112 108 111 108 107 105 108 109 110 114 129 118 100 94 89 89 87 87 93 93 85 79 72 65 54 48 30 39 36 20 358 1 359 356 352 330 340 323 319 320 311 302
113 111 110 111 110 112 111 113 116 113 115 103 94 88 69 85 97 94 97 97 81 65 52 44 36 31 22 32 23 14 352 331 335 334 319 319 324 311 309 313 314 303
115 119 116 120 116 122 117 116 109 99 90 90 92 86 82 75 81 89 74 59 52 37 35 27 22 11 2 11 0 352 341 325 321 318 299 293 290 297 304 310 303 306
127 130 128 126 122 122 115 110 101 97 83 91 91 78 75 73 52 46 50 46 43 34 16 10 4 1 356 347 343 342 320 307 307 306 300 297 292 288 291 289 289 279
137 136 132 128 124 119 115 113 109 101 100 83 97 91 70 59 56 41 49 34 33 19 16 4 358 357 343 323 316 318 316 303 291 290 291 292 294 290 285 281 276 281
141 139 133 128 124 122 120 112 107 108 99 98 94 87 75 57 40 41 24 30 9 13 11 2 349 340 327 319 317 318 312 308 304 298 289 284 279 280 281 278 276 278
138 136 127 123 121 116 111 109 104 97 97 93 83 74 72 66 51 30 354 30 15 15 354 357 343 330 322 314 307 301 305 301 298 299 299 296 293 291 289 286 284 284
133 126 120 116 113 108 102 98 93 90 81 75 74 74 66 64 62 52 31 12 5 9 355 351 339 317 309 318 322 322 314 309 305 304 301 302 302 300 297 294 291 282
128 121 119 113 108 107 107 102 95 87 83 77 72 72 66 52 44 46 53 36 5 351 351 346 335 326 328 331 333 324 317 313 310 303 302 300 302 303 300 293 289 290
125 123 119 111 114 108 103 98 92 88 81 77 68 65 60 47 55 42 27 17 7 350 344 347 342 335 335 336 329 326 319 306 301 300 297 298 298 297 302 306 303 294
129 124 116 117 111 107 103 100 94 86 81 80 72 50 35 55 49 36 24 10 359 354 353 344 338 329 332 327 326 327 326 315 304 303 303 302 297 298 300 303 306 308
130 125 122 118 114 109 104 94 94 87 77 69 63 66 63 53 39 36 18 3 360 349 348 341 331 321 322 325 329 330 332 333 319 310 309 303 304 301 302 306 308 311
131 128 125 123 117 106 99 95 90 95 100 94 81 55 56 51 41 33 18 3 349 338 336 326 320 308 323 330 333 337 338 343 314 313 305 299 302 303 304 308 307 311
133 133 129 125 116 109 103 97 101 96 76 59 69 63 58 49 36 28 1 354 335 328 328 320 308 317 329 335 340 341 343 344 319 315 310 306 303 301 302 304 307 305
140 136 130 124 119 112 111 108 98 98 88 62 63 55 58 63 32 48 16 344 322 323 325 322 313 322 332 340 346 347 349 337 328 326 324 319 316 310 306 305 303 308
143 138 133 128 126 121 118 119 112 95 80 81 68 59 55 46 49 19 331 332 326 324 322 314 313 316 336 348 353 351 351 340 333 329 324 322 319 319 317 316 318 319
138 136 134 133 129 131 132 125 120 101 104 81 91 71 44 34 38 17 339 339 328 312 312 310 311 318 342 353 356 354 354 344 333 331 322 322 321 321 324 325 326 332
130 129 132 133 130 134 134 124 125 117 109 93 93 98 93 44 29 36 348 339 318 296 301 302 302 320 338 356 356 355 354 343 337 333 327 329 330 327 326 325 322 324
126 127 129 132 133 131 123 128 139 94 75 77 61 86 71 33 42 35 16 329 323 301 290 286 302 324 336 356 357 357 356 358 342 344 337 331 331 329 326 324 327 324